Regional Weather Roundup
Issued by NWS

Home | Current Version | Previous Version | Graphics & Text | Print | Product List | Glossary On
Versions: 1 2 3 4 5 6 7 8 9 10 11 12 13 14 15 16 17 18 19 20 21 22 23 24 25 26 27 28 29 30 31 32 33 34 35 36 37 38 39 40 41 42 43 44 45 46 47 48 49 50
000
ASUS43 KMKX 021911
RWRWI

WISCONSIN REGIONAL WEATHER ROUNDUP
NATIONAL WEATHER SERVICE MILWAUKEE/SULLIVAN WI
200 PM CDT MON MAY 02 2016

NOTE: "FAIR" INDICATES FEW OR NO CLOUDS BELOW 12,000 FEET WITH NO
SIGNIFICANT WEATHER AND/OR OBSTRUCTIONS TO VISIBILITY.

WIZ001-002-006>008-014>016-023>028-022000-
NORTHWEST WISCONSIN

CITY           SKY/WX    TMP DP  RH WIND       PRES   REMARKS
SUPERIOR ARPT  SUNNY     62  39  42 E9        30.06F
ASHLAND        SUNNY     63  39  41 N10       30.08F
HAYWARD        PTSUNNY   63  30  28 VRB5      30.05F
SIREN          MOSUNNY   64  28  25 CALM      30.05F
CUMBERLAND     SUNNY     61  30  31 CALM      30.06F
RICE LAKE      MOSUNNY   63  33  32 W3        30.07F
CHETEK         PTSUNNY   61  35  38 N6        30.06F
LADYSMITH      PTSUNNY   60  32  35 CALM      30.08F
EAU CLAIRE     PTSUNNY   63  32  31 SW7       30.06F
MENOMONIE      PTSUNNY   69  34  27 CALM      30.06F
NEW RICHMOND   MOSUNNY   63  34  33 CALM      30.07F
OSCEOLA        SUNNY     64  33  31 N5        30.09F
$$

WIZ003>005-009-010-017-018-022000-
NORTH CENTRAL WISCONSIN

CITY           SKY/WX    TMP DP  RH WIND       PRES   REMARKS
MANITOWISH WTR PTSUNNY   59  32  36 E5        30.05F
ARBOR VITAE    CLOUDY    59  31  33 CALM      30.05F
WOODRUFF       CLOUDY    59  31  33 CALM      30.05F
RHINELANDER    CLOUDY    60  31  33 VRB5      30.06F
EAGLE RIVER    PTSUNNY   58  26  29 N5        30.05F
LAND O LAKES   PTSUNNY   59  28  30 N5        30.06F
PHILLIPS       CLOUDY    58  32  37 CALM      30.05F
TOMAHAWK       PTSUNNY   59  30  34 W3        30.06F
MEDFORD        MOSUNNY   58  35  41 N5        30.07F
MERRILL        PTSUNNY   60  33  35 CALM      30.07F
$$

WIZ029-030-035-036-043>047-022000-
CENTRAL WISCONSIN

CITY           SKY/WX    TMP DP  RH WIND       PRES   REMARKS
WAUSAU         PTSUNNY   64  31  28 NW5       30.04F
MOSINEE        PTSUNNY   61  30  31 N7        30.07F
MARSHFIELD     PTSUNNY   61  34  36 VRB5      30.06F
STEVENS POINT  MOSUNNY   61  31  32 NW3       30.06S
WAUPACA        SUNNY     65  28  24 E8        30.06F
WAUTOMA        SUNNY     64  29  26 N12G18    30.05F
WISC RAPIDS    PTSUNNY   62  27  26 VRB7      30.08F
CAMP DOUGLAS   PTSUNNY   63  36  36 VRB3      30.06F
$$

WIZ011>013-019>022-031-037>040-048>050-022000-
NORTHEAST WISCONSIN

CITY           SKY/WX    TMP DP  RH WIND       PRES   REMARKS
ANTIGO         PTSUNNY   58  32  37 N6        30.06F
SHAWANO        SUNNY     65  29  25 E3        30.06F
OCONTO         SUNNY     60  36  39 E9        30.06S
STURGEON BAY   MOSUNNY   59  34  38 N9        30.09S
GREEN BAY      LGT RAIN  63  32  31 MISG      30.07F
MANITOWOC      SUNNY     55  40  56 SE9       30.07F
APPLETON       PTSUNNY   61  28  29 VRB6      30.04F
CLINTONVILLE   SUNNY     63  30  29 CALM      30.05F
OSHKOSH        SUNNY     61  32  33 E10       30.06F
$$

WIZ032>034-041-042-053>061-022000-
SOUTHWEST WISCONSIN

CITY           SKY/WX    TMP DP  RH WIND       PRES   REMARKS
LA CROSSE      SUNNY     64  34  32 W6        30.07F
SPARTA         CLOUDY    60  35  38 N5        30.08S
VIROQUA        MOSUNNY   61  35  37 N8        30.07F
BOSCOBEL       MOSUNNY   65  33  30 VRB6      30.06F
PRAIRIE DU CHI PTSUNNY   60  35  38 SW5       30.07F
PLATTEVILLE    PTSUNNY   59  36  43 N3        30.07S
$$

WIZ056-057-062-063-064-067-068-022000-
SOUTH CENTRAL WISCONSIN

CITY           SKY/WX    TMP DP  RH WIND       PRES   REMARKS
REEDSBURG      PTSUNNY   59  34  38 NE7       30.06F
BARABOO/DELLS  PTSUNNY   60  29  31 NE7       30.06F
LONE ROCK      MOSUNNY   61  35  37 NE9       30.07F
MINERAL POINT  PTSUNNY   63  32  31 N6        30.07S
MADISON        PTSUNNY   62  35  36 E6        30.06F
MIDDLETON      MOSUNNY   62  36  38 NE10G16   30.07S
WATERTOWN      CLOUDY    60  35  39 NE9       30.05S
MONROE         PTSUNNY   59  34  38 N6G16     30.06S
JANESVILLE     CLOUDY    63  36  36 NE9       30.05F
$$

WIZ051-052-058>065-066-070>072-022000-
SOUTHEAST WISCONSIN

CITY           SKY/WX    TMP DP  RH WIND       PRES   REMARKS
MILWAUKEE      PTSUNNY   55  36  48 NE13      30.07S
WAUKESHA       PTSUNNY   57  30  35 NE9G17    30.06S
MILWAUKEE/TIMM SUNNY     59  30  33 NE10G18   30.07S
RACINE         MOSUNNY   56  36  47 N12       30.08S
BURLINGTON     CLOUDY    59  33  36 NE13      30.05F
KENOSHA        SUNNY     60  38  43 NE15      30.06S
FOND DU LAC    SUNNY     61  36  39 N12       30.06F
SHEBOYGAN      SUNNY     58  40  51 E12       30.06F
WEST BEND      PTSUNNY   57  32  38 E5G12     30.05S
JUNEAU         MOSUNNY   60  35  39 N10       30.07S
$$

LSZ147-162-022000-
LAKE SUPERIOR

STATION/POSITION TIME  TEMP    WIND        PRES    WAVE
                       AIR SEA DIR/SP/G            HT/PER
                 (UTC) (F)     (DEG/KT/KT) (MB)    (FT/S)
W MID LAKE BUOY  1850   39 37  180/  4/  4 1019.6F   0
DEVILS ISLAND    1900   51     120/  6/  7 1018.8F
SAXON HARBOR     1800   43      20/  2/  4 1019.3F
$$

LMZ867-665-643>646-022000-
LAKE MICHIGAN

STATION/POSITION TIME  TEMP    WIND        PRES    WAVE
                       AIR SEA DIR/SP/G            HT/PER
                 (UTC) (F)     (DEG/KT/KT) (MB)    (FT/S)
CHAMBERS ISLAND  1800   55      70/  6/  8 1018.3F
N MID LAKE BUOY  1850   41 40  240/  4/  4 1018.4F   0
NORTHPORT PIER   1800   46     130/  7/  7 1018.3F
KEWAUNEE LAKESHO 1800   46      80/  4/  6 1018.0F
SHEBOYGAN LAKESH 1900   44      10/  6/  6 1019.0F
PORT WASHINGTON  1800   48      50/  7/  9 1019.3
S MID LAKE BUOY  1850   41 41  350/  4/  6 1018.1R   1/ 3
KENOSHA   LAKESH 1900   46      30/ 14/ 15 1017.9S
$$

TC  - TEMPERATURE IN CELSIUS
VSB - VISIBILITY IN STATUTE MILES
WCI - WIND CHILL INDEX
HX  - HEAT INDEX





USA.gov is the U.S. government's official web portal to all federal, state and local government web resources and services.